Location: Unspecified
(0.0000°N, 0.0000°E)
Time: 17:27:23
(UTC+02:00)

Iridium 15 - Visible Passes

Search period start: 16 September 2014 00:00
Search period end: 26 September 2014 00:00
Orbit: 776 x 779 km, 86.4° (Epoch: 16 September)

Date Brightness Start Highest point End Pass type
(mag) Time Alt. Az. Time Alt. Az. Time Alt. Az.
16 Sep 8.2 07:05:26 10° SSE 07:09:59 31° E 07:14:30 10° NNE visible
17 Sep 9.3 06:33:58 10° ESE 06:36:31 14° E 06:39:03 10° ENE visible
17 Sep 9.7 20:48:57 10° WNW 20:50:21 11° W 20:51:45 10° WSW visible
18 Sep 8.7 20:12:40 10° NW 20:16:53 25° W 20:21:08 10° SW visible
19 Sep 7.1 07:05:00 10° SSE 07:10:02 50° E 07:15:02 10° NNE visible
20 Sep 8.6 06:32:34 10° SE 06:36:34 22° E 06:40:32 10° NE visible
21 Sep 9.4 20:13:54 10° NW 20:16:56 16° W 20:20:00 10° SW visible
22 Sep 6.2 07:04:51 10° S 07:10:04 82° E 07:15:16 10° N visible
23 Sep 7.7 06:31:52 10° SSE 06:36:37 36° E 06:41:20 10° NNE visible
24 Sep 8.9 05:59:58 10° SE 06:03:09 16° E 06:06:18 10° NE visible
25 Sep 6.0 07:04:58 10° S 07:10:07 62° W 07:15:13 10° N visible
